This demonstration page uses our WeatherBlox Daily Observations layout. Learn more.

Left ArrowRight Arrow

34.02893, -84.19858

Hourly Observations for November 10, 2022

Temp ( °F °C ) Dew Point ( °F °C ) Humidity (%) Winds ( mph kmh ) Pressure ( in mb ) Visibility ( mi km ) Precip ( " mm )
12:53 am 00:53 Mostly Clear 59 15 43 6.1 55 55 VRB 7 11 30.23 1024 10 16 0.00 0.00
1:53 am 01:53 Cloudy 59 15 44 6.7 58 58 ENE 7 11 30.21 1023 10 16 0.00 0.00
2:53 am 02:53 Cloudy 60 15.6 45 7.2 57 57 VRB 3 6 30.17 1022 10 16 0.00 0.00
3:53 am 03:53 Cloudy 60 15.6 46 7.8 60 60 ENE 9 15 30.14 1021 10 16 0.00 0.00
4:53 am 04:53 Cloudy 59 15 46 7.8 62 62 VRB 7 11 30.13 1020 10 16 0.00 0.00
5:53 am 05:53 Cloudy 59 15 47 8.3 64 64 VRB 5 7 30.12 1020 10 16 0.00 0.00
6:17 am 06:17 Cloudy 60 15.6 47 8.3 62 62 VRB 6 9 30.12 1020 10 16 0.00 0.00
6:53 am 06:53 Cloudy 60 15.6 48 8.9 64 64 ENE 10 17 30.11 1020 10 16 0.00 0.00
7:53 am 07:53 Cloudy 61 16.1 50 10 67 67 VRB 3 6 30.11 1020 10 16 0.00 0.00
8:53 am 08:53 Mostly Cloudy 62 16.7 51 10.6 67 67 E 10 17 30.12 1020 10 16 0.00 0.00
9:53 am 09:53 Mostly Cloudy 64 17.8 52 11.1 65 65 undefined N/A 30.11 1020 10 16 0.00 0.00
10:04 am 10:04 Cloudy 64 17.8 52 11.1 65 65 ENE 10 17 30.11 1020 10 16 0.00 0.00
10:53 am 10:53 Cloudy 65 18.3 54 12.2 68 68 VRB 7 11 30.10 1019 10 16 0.00 0.00
11:53 am 11:53 Cloudy 66 18.9 55 12.8 68 68 NNE 12 19 30.06 1018 10 16 0.00 0.00
12:53 pm 12:53 Cloudy 64 17.8 56 13.3 75 75 NE 13 20 30.03 1017 8 13 0.00 0.00
1:00 pm 13:00 Cloudy 64 17.8 56 13.3 75 75 VRB 5 7 30.02 1017 7 11 0.00 0.00
1:53 pm 13:53 Cloudy with Light Rain 62 16.7 58 14.4 86 86 NE 10 17 30.00 1016 5 8 0.01 0.13
2:32 pm 14:32 Cloudy 63 17.2 58 14.4 84 84 NE 12 19 29.98 1015 10 16 0.01 0.13
2:42 pm 14:42 Cloudy 63 17.2 58 14.4 84 84 VRB 7 11 29.96 1015 10 16 0.01 0.13
2:53 pm 14:53 Cloudy 63 17.2 58 14.4 84 84 VRB 6 9 29.96 1015 10 16 0.01 0.13
3:53 pm 15:53 Cloudy 62 16.7 58 14.4 86 86 undefined N/A 29.92 1013 10 16 0.00 0.00
4:53 pm 16:53 Cloudy 62 16.7 58 14.4 86 86 ENE 8 13 29.90 1013 10 16 0.01 0.13
5:53 pm 17:53 Cloudy 62 16.7 58 14.4 86 86 NNE 8 13 29.90 1013 9 14 0.00 0.00
6:53 pm 18:53 Cloudy with Light Rain 61 16.1 58 14.4 90 90 NE 10 17 29.86 1011 10 16 0.01 0.25
7:24 pm 19:24 Cloudy 61 16.1 59 15 93 93 VRB 6 9 29.86 1011 10 16 0.01 0.25
7:53 pm 19:53 Cloudy 62 16.7 59 15 90 90 ENE 8 13 29.85 1011 10 16 0.01 0.25
8:53 pm 20:53 Cloudy 62 16.7 60 15.6 93 93 VRB 7 11 29.82 1010 9 14 0.01 0.13
9:53 pm 21:53 Cloudy 62 16.7 60 15.6 93 93 undefined N/A 29.80 1009 9 14 0.03 0.76
10:12 pm 22:12 Cloudy 62 16.7 60 15.6 93 93 VRB 7 11 29.80 1009 10 16 0.00 0.00
10:53 pm 22:53 Cloudy with Light Rain 62 16.7 60 15.6 93 93 VRB 6 9 29.76 1008 6 10 0.02 0.51
11:53 pm 23:53 Cloudy with Light Rain 62 16.7 61 16.1 96 96 VRB 7 11 29.72 1006 6 10 0.02 0.51

Powered by AerisWeather